Year,Month,Day,Hour,Minute,Value (Times are PST for insolation in W/m^2)
2007,07,14,00,00,0.00
2007,07,14,00,01,0.00
2007,07,14,00,02,0.00
2007,07,14,00,03,0.00
2007,07,14,00,04,0.00
2007,07,14,00,05,0.00
2007,07,14,00,06,0.00
2007,07,14,00,07,0.00
2007,07,14,00,08,0.00
2007,07,14,00,09,0.00
2007,07,14,00,10,0.00
2007,07,14,00,11,0.00
2007,07,14,00,12,0.00
2007,07,14,00,13,0.00
2007,07,14,00,14,0.00
2007,07,14,00,15,0.00
2007,07,14,00,16,0.00
2007,07,14,00,17,0.00
2007,07,14,00,18,0.00
2007,07,14,00,19,0.00
2007,07,14,00,20,0.00
2007,07,14,00,21,0.00
2007,07,14,00,22,0.00
2007,07,14,00,23,0.00
2007,07,14,00,24,0.00
2007,07,14,00,25,0.00
2007,07,14,00,26,0.00
2007,07,14,00,27,0.00
2007,07,14,00,28,0.00
2007,07,14,00,29,0.00
2007,07,14,00,30,0.00
2007,07,14,00,31,0.00
2007,07,14,00,32,0.00
2007,07,14,00,33,0.00
2007,07,14,00,34,0.00
2007,07,14,00,35,0.00
2007,07,14,00,36,0.00
2007,07,14,00,37,0.00
2007,07,14,00,38,0.00
2007,07,14,00,39,0.00
2007,07,14,00,40,0.00
2007,07,14,00,41,0.00
2007,07,14,00,42,0.00
2007,07,14,00,43,0.00
2007,07,14,00,44,0.00
2007,07,14,00,45,0.00
2007,07,14,00,46,0.00
2007,07,14,00,47,0.00
2007,07,14,00,48,0.00
2007,07,14,00,49,0.00
2007,07,14,00,50,0.00
2007,07,14,00,51,0.00
2007,07,14,00,52,0.00
2007,07,14,00,53,0.00
2007,07,14,00,54,0.00
2007,07,14,00,55,0.00
2007,07,14,00,56,0.00
2007,07,14,00,57,0.00
2007,07,14,00,58,0.00
2007,07,14,00,59,0.00
2007,07,14,01,00,0.00
2007,07,14,01,01,0.00
2007,07,14,01,02,0.00
2007,07,14,01,03,0.00
2007,07,14,01,04,0.00
2007,07,14,01,05,0.00
2007,07,14,01,06,0.00
2007,07,14,01,07,0.00
2007,07,14,01,08,0.00
2007,07,14,01,09,0.00
2007,07,14,01,10,0.00
2007,07,14,01,11,0.00
2007,07,14,01,12,0.00
2007,07,14,01,13,0.00
2007,07,14,01,14,0.00
2007,07,14,01,15,0.00
2007,07,14,01,16,0.00
2007,07,14,01,17,0.00
2007,07,14,01,18,0.00
2007,07,14,01,19,0.00
2007,07,14,01,20,0.00
2007,07,14,01,21,0.00
2007,07,14,01,22,0.00
2007,07,14,01,23,0.00
2007,07,14,01,24,0.00
2007,07,14,01,25,0.00
2007,07,14,01,26,0.00
2007,07,14,01,27,0.00
2007,07,14,01,28,0.00
2007,07,14,01,29,0.00
2007,07,14,01,30,0.00
2007,07,14,01,31,0.00
2007,07,14,01,32,0.00
2007,07,14,01,33,0.00
2007,07,14,01,34,0.00
2007,07,14,01,35,0.00
2007,07,14,01,36,0.00
2007,07,14,01,37,0.00
2007,07,14,01,38,0.00
2007,07,14,01,39,0.00
2007,07,14,01,40,0.00
2007,07,14,01,41,0.00
2007,07,14,01,42,0.00
2007,07,14,01,43,0.00
2007,07,14,01,44,0.00
2007,07,14,01,45,0.00
2007,07,14,01,46,0.00
2007,07,14,01,47,0.00
2007,07,14,01,48,0.00
2007,07,14,01,49,0.00
2007,07,14,01,50,0.00
2007,07,14,01,51,0.00
2007,07,14,01,52,0.00
2007,07,14,01,53,0.00
2007,07,14,01,54,0.00
2007,07,14,01,55,0.00
2007,07,14,01,56,0.00
2007,07,14,01,57,0.00
2007,07,14,01,58,0.00
2007,07,14,01,59,0.00
2007,07,14,02,00,0.00
2007,07,14,02,01,0.00
2007,07,14,02,02,0.00
2007,07,14,02,03,0.00
2007,07,14,02,04,0.00
2007,07,14,02,05,0.00
2007,07,14,02,06,0.00
2007,07,14,02,07,0.00
2007,07,14,02,08,0.00
2007,07,14,02,09,0.00
2007,07,14,02,10,0.00
2007,07,14,02,11,0.00
2007,07,14,02,12,0.00
2007,07,14,02,13,0.00
2007,07,14,02,14,0.00
2007,07,14,02,15,0.00
2007,07,14,02,16,0.00
2007,07,14,02,17,0.00
2007,07,14,02,18,0.00
2007,07,14,02,19,0.00
2007,07,14,02,20,0.00
2007,07,14,02,21,0.00
2007,07,14,02,22,0.00
2007,07,14,02,23,0.00
2007,07,14,02,24,0.00
2007,07,14,02,25,0.00
2007,07,14,02,26,0.00
2007,07,14,02,27,0.00
2007,07,14,02,28,0.00
2007,07,14,02,29,0.00
2007,07,14,02,30,0.00
2007,07,14,02,31,0.00
2007,07,14,02,32,0.00
2007,07,14,02,33,0.00
2007,07,14,02,34,0.00
2007,07,14,02,35,0.00
2007,07,14,02,36,0.00
2007,07,14,02,37,0.00
2007,07,14,02,38,0.00
2007,07,14,02,39,0.00
2007,07,14,02,40,0.00
2007,07,14,02,41,0.00
2007,07,14,02,42,0.00
2007,07,14,02,43,0.00
2007,07,14,02,44,0.00
2007,07,14,02,45,0.00
2007,07,14,02,46,0.00
2007,07,14,02,47,0.00
2007,07,14,02,48,0.00
2007,07,14,02,49,0.00
2007,07,14,02,50,0.00
2007,07,14,02,51,0.00
2007,07,14,02,52,0.00
2007,07,14,02,53,0.00
2007,07,14,02,54,0.00
2007,07,14,02,55,0.00
2007,07,14,02,56,0.00
2007,07,14,02,57,0.00
2007,07,14,02,58,0.00
2007,07,14,02,59,0.00
2007,07,14,03,00,0.00
2007,07,14,03,01,0.00
2007,07,14,03,02,0.00
2007,07,14,03,03,0.00
2007,07,14,03,04,0.00
2007,07,14,03,05,0.00
2007,07,14,03,06,0.00
2007,07,14,03,07,0.00
2007,07,14,03,08,0.00
2007,07,14,03,09,0.00
2007,07,14,03,10,0.00
2007,07,14,03,11,0.00
2007,07,14,03,12,0.00
2007,07,14,03,13,0.00
2007,07,14,03,14,0.00
2007,07,14,03,15,0.00
2007,07,14,03,16,0.00
2007,07,14,03,17,0.00
2007,07,14,03,18,0.00
2007,07,14,03,19,0.00
2007,07,14,03,20,0.00
2007,07,14,03,21,0.00
2007,07,14,03,22,0.00
2007,07,14,03,23,0.00
2007,07,14,03,24,0.00
2007,07,14,03,25,0.00
2007,07,14,03,26,0.00
2007,07,14,03,27,0.00
2007,07,14,03,28,0.00
2007,07,14,03,29,0.00
2007,07,14,03,30,0.00
2007,07,14,03,31,0.00
2007,07,14,03,32,0.00
2007,07,14,03,33,0.00
2007,07,14,03,34,0.00
2007,07,14,03,35,0.00
2007,07,14,03,36,0.00
2007,07,14,03,37,0.00
2007,07,14,03,38,0.00
2007,07,14,03,39,0.00
2007,07,14,03,40,0.00
2007,07,14,03,41,0.00
2007,07,14,03,42,0.00
2007,07,14,03,43,0.00
2007,07,14,03,44,0.00
2007,07,14,03,45,0.00
2007,07,14,03,46,0.00
2007,07,14,03,47,0.00
2007,07,14,03,48,0.00
2007,07,14,03,49,0.00
2007,07,14,03,50,0.00
2007,07,14,03,51,0.00
2007,07,14,03,52,0.00
2007,07,14,03,53,0.00
2007,07,14,03,54,0.00
2007,07,14,03,55,0.00
2007,07,14,03,56,0.00
2007,07,14,03,57,0.00
2007,07,14,03,58,0.00
2007,07,14,03,59,0.00
2007,07,14,04,00,0.00
2007,07,14,04,01,0.00
2007,07,14,04,02,0.00
2007,07,14,04,03,0.00
2007,07,14,04,04,0.00
2007,07,14,04,05,0.00
2007,07,14,04,06,0.00
2007,07,14,04,07,0.00
2007,07,14,04,08,0.00
2007,07,14,04,09,0.00
2007,07,14,04,10,0.00
2007,07,14,04,11,0.00
2007,07,14,04,12,0.00
2007,07,14,04,13,0.00
2007,07,14,04,14,0.00
2007,07,14,04,15,0.00
2007,07,14,04,16,0.00
2007,07,14,04,17,0.00
2007,07,14,04,18,0.00
2007,07,14,04,19,0.00
2007,07,14,04,20,0.00
2007,07,14,04,21,0.00
2007,07,14,04,22,0.00
2007,07,14,04,23,0.00
2007,07,14,04,24,0.00
2007,07,14,04,25,0.00
2007,07,14,04,26,0.00
2007,07,14,04,27,0.00
2007,07,14,04,28,0.00
2007,07,14,04,29,0.00
2007,07,14,04,30,0.00
2007,07,14,04,31,0.00
2007,07,14,04,32,0.00
2007,07,14,04,33,0.00
2007,07,14,04,34,0.00
2007,07,14,04,35,0.00
2007,07,14,04,36,0.00
2007,07,14,04,37,0.00
2007,07,14,04,38,0.00
2007,07,14,04,39,0.00
2007,07,14,04,40,0.00
2007,07,14,04,41,0.00
2007,07,14,04,42,0.00
2007,07,14,04,43,0.00
2007,07,14,04,44,0.00
2007,07,14,04,45,0.00
2007,07,14,04,46,0.00
2007,07,14,04,47,0.00
2007,07,14,04,48,0.00
2007,07,14,04,49,0.00
2007,07,14,04,50,0.00
2007,07,14,04,51,0.00
2007,07,14,04,52,0.00
2007,07,14,04,53,0.00
2007,07,14,04,54,0.00
2007,07,14,04,55,0.00
2007,07,14,04,56,0.00
2007,07,14,04,57,0.00
2007,07,14,04,58,0.00
2007,07,14,04,59,0.00
2007,07,14,05,00,0.00
2007,07,14,05,01,0.00
2007,07,14,05,02,0.00
2007,07,14,05,03,0.00
2007,07,14,05,04,0.00
2007,07,14,05,05,0.00
2007,07,14,05,06,0.00
2007,07,14,05,07,0.00
2007,07,14,05,08,0.00
2007,07,14,05,09,0.00
2007,07,14,05,10,0.00
2007,07,14,05,11,0.00
2007,07,14,05,12,0.00
2007,07,14,05,13,0.00
2007,07,14,05,14,0.00
2007,07,14,05,15,0.00
2007,07,14,05,16,0.00
2007,07,14,05,17,0.00
2007,07,14,05,18,0.00
2007,07,14,05,19,0.00
2007,07,14,05,20,0.00
2007,07,14,05,21,0.00
2007,07,14,05,22,0.00
2007,07,14,05,23,0.00
2007,07,14,05,24,0.00
2007,07,14,05,25,0.00
2007,07,14,05,26,0.00
2007,07,14,05,27,0.00
2007,07,14,05,28,0.00
2007,07,14,05,29,0.00
2007,07,14,05,30,0.00
2007,07,14,05,31,3.00
2007,07,14,05,32,5.00
2007,07,14,05,33,5.00
2007,07,14,05,34,5.40
2007,07,14,05,35,7.00
2007,07,14,05,36,7.00
2007,07,14,05,37,8.40
2007,07,14,05,38,9.00
2007,07,14,05,39,9.10
2007,07,14,05,40,11.00
2007,07,14,05,41,11.40
2007,07,14,05,42,12.00
2007,07,14,05,43,12.00
2007,07,14,05,44,13.90
2007,07,14,05,45,14.20
2007,07,14,05,46,16.00
2007,07,14,05,47,16.00
2007,07,14,05,48,17.30
2007,07,14,05,49,18.00
2007,07,14,05,50,18.00
2007,07,14,05,51,18.10
2007,07,14,05,52,19.60
2007,07,14,05,53,21.00
2007,07,14,05,54,23.60
2007,07,14,05,55,29.10
2007,07,14,05,56,33.00
2007,07,14,05,57,37.00
2007,07,14,05,58,37.70
2007,07,14,05,59,39.00
2007,07,14,06,00,41.00
2007,07,14,06,01,42.00
2007,07,14,06,02,44.00
2007,07,14,06,03,37.80
2007,07,14,06,04,30.70
2007,07,14,06,05,29.10
2007,07,14,06,06,31.20
2007,07,14,06,07,34.50
2007,07,14,06,08,36.90
2007,07,14,06,09,36.20
2007,07,14,06,10,39.60
2007,07,14,06,11,37.90
2007,07,14,06,12,39.10
2007,07,14,06,13,41.80
2007,07,14,06,14,40.40
2007,07,14,06,15,45.50
2007,07,14,06,16,44.00
2007,07,14,06,17,39.90
2007,07,14,06,18,37.00
2007,07,14,06,19,37.00
2007,07,14,06,20,37.00
2007,07,14,06,21,37.60
2007,07,14,06,22,38.20
2007,07,14,06,23,37.00
2007,07,14,06,24,37.00
2007,07,14,06,25,37.00
2007,07,14,06,26,37.00
2007,07,14,06,27,37.00
2007,07,14,06,28,37.80
2007,07,14,06,29,39.00
2007,07,14,06,30,39.80
2007,07,14,06,31,40.00
2007,07,14,06,32,42.00
2007,07,14,06,33,42.60
2007,07,14,06,34,44.00
2007,07,14,06,35,45.90
2007,07,14,06,36,48.60
2007,07,14,06,37,60.00
2007,07,14,06,38,54.40
2007,07,14,06,39,58.50
2007,07,14,06,40,66.30
2007,07,14,06,41,66.80
2007,07,14,06,42,66.60
2007,07,14,06,43,69.00
2007,07,14,06,44,69.80
2007,07,14,06,45,69.00
2007,07,14,06,46,67.90
2007,07,14,06,47,67.00
2007,07,14,06,48,62.90
2007,07,14,06,49,57.70
2007,07,14,06,50,52.10
2007,07,14,06,51,47.90
2007,07,14,06,52,43.90
2007,07,14,06,53,42.00
2007,07,14,06,54,43.80
2007,07,14,06,55,49.30
2007,07,14,06,56,55.90
2007,07,14,06,57,63.20
2007,07,14,06,58,65.00
2007,07,14,06,59,65.00
2007,07,14,07,00,65.00
2007,07,14,07,01,65.20
2007,07,14,07,02,87.40
2007,07,14,07,03,155.50
2007,07,14,07,04,169.10
2007,07,14,07,05,170.10
2007,07,14,07,06,82.50
2007,07,14,07,07,74.80
2007,07,14,07,08,81.60
2007,07,14,07,09,100.90
2007,07,14,07,10,121.00
2007,07,14,07,11,86.60
2007,07,14,07,12,76.00
2007,07,14,07,13,73.80
2007,07,14,07,14,90.20
2007,07,14,07,15,59.20
2007,07,14,07,16,54.30
2007,07,14,07,17,53.00
2007,07,14,07,18,53.00
2007,07,14,07,19,53.90
2007,07,14,07,20,62.90
2007,07,14,07,21,66.10
2007,07,14,07,22,67.00
2007,07,14,07,23,78.50
2007,07,14,07,24,118.40
2007,07,14,07,25,191.20
2007,07,14,07,26,244.60
2007,07,14,07,27,240.90
2007,07,14,07,28,231.00
2007,07,14,07,29,192.20
2007,07,14,07,30,127.80
2007,07,14,07,31,120.00
2007,07,14,07,32,143.10
2007,07,14,07,33,171.20
2007,07,14,07,34,134.70
2007,07,14,07,35,141.80
2007,07,14,07,36,131.80
2007,07,14,07,37,128.50
2007,07,14,07,38,138.80
2007,07,14,07,39,155.00
2007,07,14,07,40,259.00
2007,07,14,07,41,315.00
2007,07,14,07,42,319.10
2007,07,14,07,43,304.00
2007,07,14,07,44,305.60
2007,07,14,07,45,303.90
2007,07,14,07,46,306.40
2007,07,14,07,47,312.70
2007,07,14,07,48,310.90
2007,07,14,07,49,324.50
2007,07,14,07,50,325.90
2007,07,14,07,51,325.70
2007,07,14,07,52,327.60
2007,07,14,07,53,329.00
2007,07,14,07,54,144.00
2007,07,14,07,55,168.80
2007,07,14,07,56,280.60
2007,07,14,07,57,323.00
2007,07,14,07,58,183.00
2007,07,14,07,59,121.10
2007,07,14,08,00,124.80
2007,07,14,08,01,134.00
2007,07,14,08,02,134.50
2007,07,14,08,03,134.40
2007,07,14,08,04,134.80
2007,07,14,08,05,144.00
2007,07,14,08,06,172.00
2007,07,14,08,07,204.30
2007,07,14,08,08,265.10
2007,07,14,08,09,255.60
2007,07,14,08,10,248.00
2007,07,14,08,11,275.50
2007,07,14,08,12,250.60
2007,07,14,08,13,194.10
2007,07,14,08,14,243.60
2007,07,14,08,15,204.00
2007,07,14,08,16,148.40
2007,07,14,08,17,198.20
2007,07,14,08,18,166.90
2007,07,14,08,19,123.50
2007,07,14,08,20,125.90
2007,07,14,08,21,123.70
2007,07,14,08,22,124.80
2007,07,14,08,23,125.20
2007,07,14,08,24,127.00
2007,07,14,08,25,127.30
2007,07,14,08,26,130.40
2007,07,14,08,27,132.00
2007,07,14,08,28,141.40
2007,07,14,08,29,145.00
2007,07,14,08,30,170.00
2007,07,14,08,31,218.00
2007,07,14,08,32,218.00
2007,07,14,08,33,218.00
2007,07,14,08,34,355.40
2007,07,14,08,35,422.20
2007,07,14,08,36,422.20
2007,07,14,08,37,412.50
2007,07,14,08,38,367.90
2007,07,14,08,39,388.00
2007,07,14,08,40,329.00
2007,07,14,08,41,329.00
2007,07,14,08,42,329.00
2007,07,14,08,43,336.60
2007,07,14,08,44,343.60
2007,07,14,08,45,407.20
2007,07,14,08,46,431.00
2007,07,14,08,47,451.50
2007,07,14,08,48,468.90
2007,07,14,08,49,468.40
2007,07,14,08,50,457.50
2007,07,14,08,51,450.50
2007,07,14,08,52,447.90
2007,07,14,08,53,446.00
2007,07,14,08,54,446.80
2007,07,14,08,55,448.00
2007,07,14,08,56,449.40
2007,07,14,08,57,451.80
2007,07,14,08,58,455.00
2007,07,14,08,59,455.00
2007,07,14,09,00,457.70
2007,07,14,09,01,463.20
2007,07,14,09,02,467.10
2007,07,14,09,03,468.90
2007,07,14,09,04,469.00
2007,07,14,09,05,469.50
2007,07,14,09,06,465.20
2007,07,14,09,07,472.30
2007,07,14,09,08,487.60
2007,07,14,09,09,475.80
2007,07,14,09,10,462.60
2007,07,14,09,11,435.20
2007,07,14,09,12,358.20
2007,07,14,09,13,349.60
2007,07,14,09,14,407.20
2007,07,14,09,15,410.40
2007,07,14,09,16,426.20
2007,07,14,09,17,410.40
2007,07,14,09,18,423.30
2007,07,14,09,19,426.90
2007,07,14,09,20,360.30
2007,07,14,09,21,281.00
2007,07,14,09,22,251.20
2007,07,14,09,23,230.90
2007,07,14,09,24,246.90
2007,07,14,09,25,295.00
2007,07,14,09,26,299.00
2007,07,14,09,27,297.00
2007,07,14,09,28,331.90
2007,07,14,09,29,378.60
2007,07,14,09,30,337.90
2007,07,14,09,31,321.80
2007,07,14,09,32,345.50
2007,07,14,09,33,401.00
2007,07,14,09,34,352.80
2007,07,14,09,35,339.00
2007,07,14,09,36,305.50
2007,07,14,09,37,294.90
2007,07,14,09,38,289.50
2007,07,14,09,39,289.40
2007,07,14,09,40,307.20
2007,07,14,09,41,306.50
2007,07,14,09,42,373.00
2007,07,14,09,43,344.50
2007,07,14,09,44,362.00
2007,07,14,09,45,309.60
2007,07,14,09,46,364.70
2007,07,14,09,47,423.30
2007,07,14,09,48,438.00
2007,07,14,09,49,507.20
2007,07,14,09,50,482.50
2007,07,14,09,51,451.50
2007,07,14,09,52,450.00
2007,07,14,09,53,439.30
2007,07,14,09,54,380.60
2007,07,14,09,55,339.30
2007,07,14,09,56,355.80
2007,07,14,09,57,348.80
2007,07,14,09,58,298.00
2007,07,14,09,59,351.20
2007,07,14,10,00,321.40
2007,07,14,10,01,295.40
2007,07,14,10,02,285.00
2007,07,14,10,03,308.20
2007,07,14,10,04,303.20
2007,07,14,10,05,325.80
2007,07,14,10,06,299.20
2007,07,14,10,07,294.50
2007,07,14,10,08,287.00
2007,07,14,10,09,285.40
2007,07,14,10,10,278.00
2007,07,14,10,11,291.00
2007,07,14,10,12,320.20
2007,07,14,10,13,388.10
2007,07,14,10,14,396.00
2007,07,14,10,15,396.00
2007,07,14,10,16,464.10
2007,07,14,10,17,623.40
2007,07,14,10,18,649.80
2007,07,14,10,19,647.00
2007,07,14,10,20,604.90
2007,07,14,10,21,567.90
2007,07,14,10,22,495.50
2007,07,14,10,23,497.20
2007,07,14,10,24,565.50
2007,07,14,10,25,572.30
2007,07,14,10,26,609.40
2007,07,14,10,27,502.60
2007,07,14,10,28,415.20
2007,07,14,10,29,378.40
2007,07,14,10,30,402.90
2007,07,14,10,31,417.40
2007,07,14,10,32,418.00
2007,07,14,10,33,418.00
2007,07,14,10,34,529.10
2007,07,14,10,35,621.10
2007,07,14,10,36,527.60
2007,07,14,10,37,560.60
2007,07,14,10,38,608.50
2007,07,14,10,39,674.80
2007,07,14,10,40,694.40
2007,07,14,10,41,724.00
2007,07,14,10,42,724.00
2007,07,14,10,43,724.00
2007,07,14,10,44,356.20
2007,07,14,10,45,363.40
2007,07,14,10,46,349.00
2007,07,14,10,47,378.90
2007,07,14,10,48,395.50
2007,07,14,10,49,397.00
2007,07,14,10,50,404.40
2007,07,14,10,51,452.80
2007,07,14,10,52,476.40
2007,07,14,10,53,499.70
2007,07,14,10,54,579.20
2007,07,14,10,55,594.00
2007,07,14,10,56,594.00
2007,07,14,10,57,594.00
2007,07,14,10,58,594.00
2007,07,14,10,59,594.00
2007,07,14,11,00,594.00
2007,07,14,11,01,612.90
2007,07,14,11,02,635.20
2007,07,14,11,03,700.60
2007,07,14,11,04,664.70
2007,07,14,11,05,644.50
2007,07,14,11,06,653.20
2007,07,14,11,07,635.70
2007,07,14,11,08,659.30
2007,07,14,11,09,677.80
2007,07,14,11,10,692.50
2007,07,14,11,11,703.80
2007,07,14,11,12,742.80
2007,07,14,11,13,775.10
2007,07,14,11,14,796.20
2007,07,14,11,15,808.00
2007,07,14,11,16,795.90
2007,07,14,11,17,733.40
2007,07,14,11,18,635.00
2007,07,14,11,19,635.00
2007,07,14,11,20,667.40
2007,07,14,11,21,732.80
2007,07,14,11,22,747.50
2007,07,14,11,23,774.20
2007,07,14,11,24,777.10
2007,07,14,11,25,778.60
2007,07,14,11,26,777.00
2007,07,14,11,27,777.00
2007,07,14,11,28,781.50
2007,07,14,11,29,782.60
2007,07,14,11,30,779.00
2007,07,14,11,31,752.00
2007,07,14,11,32,626.00
2007,07,14,11,33,697.50
2007,07,14,11,34,761.00
2007,07,14,11,35,623.50
2007,07,14,11,36,626.00
2007,07,14,11,37,652.60
2007,07,14,11,38,691.00
2007,07,14,11,39,740.20
2007,07,14,11,40,781.60
2007,07,14,11,41,780.00
2007,07,14,11,42,779.50
2007,07,14,11,43,768.00
2007,07,14,11,44,768.00
2007,07,14,11,45,763.70
2007,07,14,11,46,761.80
2007,07,14,11,47,779.80
2007,07,14,11,48,691.40
2007,07,14,11,49,638.10
2007,07,14,11,50,612.00
2007,07,14,11,51,697.90
2007,07,14,11,52,788.60
2007,07,14,11,53,766.90
2007,07,14,11,54,771.00
2007,07,14,11,55,779.90
2007,07,14,11,56,782.90
2007,07,14,11,57,769.30
2007,07,14,11,58,782.30
2007,07,14,11,59,797.50
2007,07,14,12,00,797.80
2007,07,14,12,01,796.70
2007,07,14,12,02,798.00
2007,07,14,12,03,799.30
2007,07,14,12,04,798.40
2007,07,14,12,05,798.00
2007,07,14,12,06,803.00
2007,07,14,12,07,790.50
2007,07,14,12,08,775.40
2007,07,14,12,09,800.20
2007,07,14,12,10,803.00
2007,07,14,12,11,810.80
2007,07,14,12,12,814.00
2007,07,14,12,13,814.70
2007,07,14,12,14,816.00
2007,07,14,12,15,816.70
2007,07,14,12,16,820.50
2007,07,14,12,17,821.20
2007,07,14,12,18,824.50
2007,07,14,12,19,826.00
2007,07,14,12,20,826.90
2007,07,14,12,21,829.20
2007,07,14,12,22,830.00
2007,07,14,12,23,830.20
2007,07,14,12,24,833.90
2007,07,14,12,25,836.20
2007,07,14,12,26,836.50
2007,07,14,12,27,826.50
2007,07,14,12,28,838.00
2007,07,14,12,29,843.20
2007,07,14,12,30,836.10
2007,07,14,12,31,817.30
2007,07,14,12,32,831.20
2007,07,14,12,33,853.30
2007,07,14,12,34,860.60
2007,07,14,12,35,867.80
2007,07,14,12,36,875.50
2007,07,14,12,37,879.00
2007,07,14,12,38,879.00
2007,07,14,12,39,870.60
2007,07,14,12,40,874.00
2007,07,14,12,41,896.10
2007,07,14,12,42,836.40
2007,07,14,12,43,819.40
2007,07,14,12,44,796.00
2007,07,14,12,45,625.50
2007,07,14,12,46,589.00
2007,07,14,12,47,517.80
2007,07,14,12,48,475.00
2007,07,14,12,49,475.00
2007,07,14,12,50,475.00
2007,07,14,12,51,551.60
2007,07,14,12,52,568.00
2007,07,14,12,53,579.10
2007,07,14,12,54,642.00
2007,07,14,12,55,642.00
2007,07,14,12,56,607.70
2007,07,14,12,57,582.00
2007,07,14,12,58,587.30
2007,07,14,12,59,570.80
2007,07,14,13,00,542.60
2007,07,14,13,01,522.00
2007,07,14,13,02,580.60
2007,07,14,13,03,522.90
2007,07,14,13,04,555.30
2007,07,14,13,05,598.10
2007,07,14,13,06,657.00
2007,07,14,13,07,637.60
2007,07,14,13,08,646.90
2007,07,14,13,09,582.50
2007,07,14,13,10,657.00
2007,07,14,13,11,668.30
2007,07,14,13,12,705.00
2007,07,14,13,13,635.50
2007,07,14,13,14,536.20
2007,07,14,13,15,527.00
2007,07,14,13,16,596.20
2007,07,14,13,17,670.90
2007,07,14,13,18,665.50
2007,07,14,13,19,684.00
2007,07,14,13,20,684.00
2007,07,14,13,21,577.60
2007,07,14,13,22,524.10
2007,07,14,13,23,577.30
2007,07,14,13,24,596.80
2007,07,14,13,25,518.70
2007,07,14,13,26,486.60
2007,07,14,13,27,485.00
2007,07,14,13,28,778.20
2007,07,14,13,29,840.00
2007,07,14,13,30,847.50
2007,07,14,13,31,856.00
2007,07,14,13,32,856.00
2007,07,14,13,33,856.00
2007,07,14,13,34,856.00
2007,07,14,13,35,882.80
2007,07,14,13,36,947.90
2007,07,14,13,37,957.80
2007,07,14,13,38,902.20
2007,07,14,13,39,895.00
2007,07,14,13,40,912.40
2007,07,14,13,41,973.10
2007,07,14,13,42,979.00
2007,07,14,13,43,969.10
2007,07,14,13,44,991.50
2007,07,14,13,45,901.50
2007,07,14,13,46,955.20
2007,07,14,13,47,938.20
2007,07,14,13,48,930.00
2007,07,14,13,49,930.00
2007,07,14,13,50,993.50
2007,07,14,13,51,1002.00
2007,07,14,13,52,1002.00
2007,07,14,13,53,811.80
2007,07,14,13,54,518.80
2007,07,14,13,55,489.20
2007,07,14,13,56,513.20
2007,07,14,13,57,608.80
2007,07,14,13,58,682.00
2007,07,14,13,59,682.00
2007,07,14,14,00,682.00
2007,07,14,14,01,607.10
2007,07,14,14,02,584.00
2007,07,14,14,03,1020.00
2007,07,14,14,04,988.20
2007,07,14,14,05,912.00
2007,07,14,14,06,912.00
2007,07,14,14,07,912.00
2007,07,14,14,08,420.70
2007,07,14,14,09,407.20
2007,07,14,14,10,423.50
2007,07,14,14,11,457.50
2007,07,14,14,12,470.90
2007,07,14,14,13,498.50
2007,07,14,14,14,434.00
2007,07,14,14,15,420.00
2007,07,14,14,16,420.00
2007,07,14,14,17,451.50
2007,07,14,14,18,470.20
2007,07,14,14,19,445.20
2007,07,14,14,20,448.40
2007,07,14,14,21,424.70
2007,07,14,14,22,434.70
2007,07,14,14,23,463.00
2007,07,14,14,24,496.00
2007,07,14,14,25,621.30
2007,07,14,14,26,638.00
2007,07,14,14,27,638.00
2007,07,14,14,28,638.00
2007,07,14,14,29,638.00
2007,07,14,14,30,638.00
2007,07,14,14,31,638.00
2007,07,14,14,32,622.90
2007,07,14,14,33,472.40
2007,07,14,14,34,394.90
2007,07,14,14,35,338.50
2007,07,14,14,36,320.60
2007,07,14,14,37,321.80
2007,07,14,14,38,346.10
2007,07,14,14,39,332.90
2007,07,14,14,40,349.20
2007,07,14,14,41,369.50
2007,07,14,14,42,391.60
2007,07,14,14,43,436.50
2007,07,14,14,44,438.00
2007,07,14,14,45,448.00
2007,07,14,14,46,450.80
2007,07,14,14,47,458.50
2007,07,14,14,48,474.30
2007,07,14,14,49,481.70
2007,07,14,14,50,494.00
2007,07,14,14,51,494.00
2007,07,14,14,52,463.40
2007,07,14,14,53,491.80
2007,07,14,14,54,526.00
2007,07,14,14,55,526.00
2007,07,14,14,56,397.00
2007,07,14,14,57,405.80
2007,07,14,14,58,422.00
2007,07,14,14,59,422.00
2007,07,14,15,00,422.00
2007,07,14,15,01,371.20
2007,07,14,15,02,367.00
2007,07,14,15,03,367.00
2007,07,14,15,04,367.00
2007,07,14,15,05,319.00
2007,07,14,15,06,292.80
2007,07,14,15,07,288.00
2007,07,14,15,08,289.80
2007,07,14,15,09,295.80
2007,07,14,15,10,289.90
2007,07,14,15,11,287.00
2007,07,14,15,12,289.60
2007,07,14,15,13,306.00
2007,07,14,15,14,308.80
2007,07,14,15,15,319.40
2007,07,14,15,16,324.90
2007,07,14,15,17,335.40
2007,07,14,15,18,330.50
2007,07,14,15,19,326.80
2007,07,14,15,20,326.20
2007,07,14,15,21,333.20
2007,07,14,15,22,345.10
2007,07,14,15,23,359.20
2007,07,14,15,24,375.20
2007,07,14,15,25,398.10
2007,07,14,15,26,417.00
2007,07,14,15,27,439.00
2007,07,14,15,28,439.00
2007,07,14,15,29,539.50
2007,07,14,15,30,491.20
2007,07,14,15,31,463.10
2007,07,14,15,32,532.80
2007,07,14,15,33,584.40
2007,07,14,15,34,577.00
2007,07,14,15,35,577.00
2007,07,14,15,36,577.00
2007,07,14,15,37,645.50
2007,07,14,15,38,965.00
2007,07,14,15,39,898.80
2007,07,14,15,40,864.00
2007,07,14,15,41,849.30
2007,07,14,15,42,853.00
2007,07,14,15,43,848.80
2007,07,14,15,44,830.50
2007,07,14,15,45,815.00
2007,07,14,15,46,794.30
2007,07,14,15,47,776.60
2007,07,14,15,48,769.20
2007,07,14,15,49,763.50
2007,07,14,15,50,758.40
2007,07,14,15,51,752.90
2007,07,14,15,52,749.10
2007,07,14,15,53,731.10
2007,07,14,15,54,730.80
2007,07,14,15,55,730.90
2007,07,14,15,56,728.80
2007,07,14,15,57,717.00
2007,07,14,15,58,717.00
2007,07,14,15,59,360.30
2007,07,14,16,00,426.00
2007,07,14,16,01,389.80
2007,07,14,16,02,414.30
2007,07,14,16,03,419.20
2007,07,14,16,04,409.60
2007,07,14,16,05,436.90
2007,07,14,16,06,524.10
2007,07,14,16,07,551.20
2007,07,14,16,08,580.90
2007,07,14,16,09,617.20
2007,07,14,16,10,631.00
2007,07,14,16,11,631.00
2007,07,14,16,12,462.00
2007,07,14,16,13,462.00
2007,07,14,16,14,462.00
2007,07,14,16,15,578.50
2007,07,14,16,16,712.80
2007,07,14,16,17,663.00
2007,07,14,16,18,715.30
2007,07,14,16,19,698.00
2007,07,14,16,20,698.00
2007,07,14,16,21,597.10
2007,07,14,16,22,555.00
2007,07,14,16,23,716.80
2007,07,14,16,24,707.30
2007,07,14,16,25,738.90
2007,07,14,16,26,719.00
2007,07,14,16,27,701.00
2007,07,14,16,28,701.00
2007,07,14,16,29,701.40
2007,07,14,16,30,694.40
2007,07,14,16,31,637.80
2007,07,14,16,32,654.40
2007,07,14,16,33,655.20
2007,07,14,16,34,647.00
2007,07,14,16,35,468.00
2007,07,14,16,36,468.00
2007,07,14,16,37,468.00
2007,07,14,16,38,427.40
2007,07,14,16,39,399.00
2007,07,14,16,40,516.60
2007,07,14,16,41,534.00
2007,07,14,16,42,534.00
2007,07,14,16,43,534.00
2007,07,14,16,44,524.30
2007,07,14,16,45,492.60
2007,07,14,16,46,554.00
2007,07,14,16,47,539.90
2007,07,14,16,48,419.60
2007,07,14,16,49,400.50
2007,07,14,16,50,444.40
2007,07,14,16,51,384.50
2007,07,14,16,52,369.00
2007,07,14,16,53,402.80
2007,07,14,16,54,366.20
2007,07,14,16,55,390.00
2007,07,14,16,56,444.90
2007,07,14,16,57,400.90
2007,07,14,16,58,376.00
2007,07,14,16,59,371.40
2007,07,14,17,00,408.50
2007,07,14,17,01,407.70
2007,07,14,17,02,403.00
2007,07,14,17,03,405.60
2007,07,14,17,04,360.90
2007,07,14,17,05,339.90
2007,07,14,17,06,329.60
2007,07,14,17,07,331.60
2007,07,14,17,08,342.50